TimeCST,TemperatureF,Dew PointF,Humidity,Sea Level PressureIn,VisibilityMPH,Wind Direction,Wind SpeedMPH,Gust SpeedMPH,PrecipitationIn,Events,Conditions,WindDirDegrees,DateUTC
12:55 AM,30.4,30.4,100,30.44,10.0,Calm,Calm,-,N/A,,Clear,0,2012-11-16 06:55:00
1:55 AM,31.5,31.5,100,30.44,5.0,Calm,Calm,-,N/A,,Clear,0,2012-11-16 07:55:00
2:33 AM,30.2,30.2,100,30.45,2.5,Calm,Calm,-,N/A,,Clear,0,2012-11-16 08:33:00
2:34 AM,30.2,30.2,100,30.45,2.0,Calm,Calm,-,N/A,,Clear,0,2012-11-16 08:34:00
2:35 AM,30.2,30.2,100,30.45,1.8,Calm,Calm,-,N/A,,Clear,0,2012-11-16 08:35:00
2:37 AM,30.2,30.2,100,30.45,1.5,Calm,Calm,-,N/A,,Clear,0,2012-11-16 08:37:00
2:40 AM,30.2,30.2,100,30.45,1.8,Calm,Calm,-,N/A,,Clear,0,2012-11-16 08:40:00
2:41 AM,30.2,30.2,100,30.45,2.0,Calm,Calm,-,N/A,,Clear,0,2012-11-16 08:41:00
2:42 AM,30.2,30.2,100,30.45,2.5,Calm,Calm,-,N/A,,Clear,0,2012-11-16 08:42:00
2:43 AM,30.2,30.2,100,30.45,3.0,Calm,Calm,-,N/A,,Clear,0,2012-11-16 08:43:00
2:55 AM,29.1,29.1,100,30.45,8.0,Calm,Calm,-,N/A,,Clear,0,2012-11-16 08:55:00
3:43 AM,30.2,30.2,100,30.45,2.5,Calm,Calm,-,N/A,,Clear,0,2012-11-16 09:43:00
3:45 AM,30.2,30.2,100,30.45,2.0,Calm,Calm,-,N/A,,Clear,0,2012-11-16 09:45:00
3:46 AM,30.2,30.2,100,30.45,1.8,Calm,Calm,-,N/A,,Clear,0,2012-11-16 09:46:00
3:48 AM,30.2,30.2,100,30.45,1.5,Calm,Calm,-,N/A,,Clear,0,2012-11-16 09:48:00
3:50 AM,28.4,28.4,100,30.45,1.2,Calm,Calm,-,N/A,,Clear,0,2012-11-16 09:50:00
3:55 AM,28.9,28.9,100,30.45,1.0,Calm,Calm,-,N/A,,Clear,0,2012-11-16 09:55:00
4:09 AM,28.4,28.4,100,30.45,1.5,Calm,Calm,-,N/A,,Clear,0,2012-11-16 10:09:00
4:11 AM,28.4,28.4,100,30.45,1.8,Calm,Calm,-,N/A,,Clear,0,2012-11-16 10:11:00
4:12 AM,28.4,28.4,100,30.45,2.0,Calm,Calm,-,N/A,,Clear,0,2012-11-16 10:12:00
4:13 AM,28.4,28.4,100,30.45,2.5,Calm,Calm,-,N/A,,Clear,0,2012-11-16 10:13:00
4:14 AM,28.4,28.4,100,30.45,3.0,Calm,Calm,-,N/A,,Clear,0,2012-11-16 10:14:00
4:22 AM,28.4,28.4,100,30.45,2.5,Calm,Calm,-,N/A,,Clear,0,2012-11-16 10:22:00
4:26 AM,28.4,28.4,100,30.45,2.0,Calm,Calm,-,N/A,,Clear,0,2012-11-16 10:26:00
4:27 AM,28.4,28.4,100,30.45,1.8,Calm,Calm,-,N/A,,Clear,0,2012-11-16 10:27:00
4:28 AM,28.4,28.4,100,30.45,1.5,Calm,Calm,-,N/A,,Clear,0,2012-11-16 10:28:00
4:29 AM,28.4,28.4,100,30.45,1.2,Calm,Calm,-,N/A,,Clear,0,2012-11-16 10:29:00
4:35 AM,26.6,26.6,100,30.45,0.8,Calm,Calm,-,N/A,,Clear,0,2012-11-16 10:35:00
4:47 AM,28.4,28.4,100,30.45,1.0,Calm,Calm,-,N/A,,Clear,0,2012-11-16 10:47:00
4:49 AM,28.4,28.4,100,30.45,1.5,Calm,Calm,-,N/A,,Clear,0,2012-11-16 10:49:00
4:50 AM,28.4,28.4,100,30.45,1.8,Calm,Calm,-,N/A,,Clear,0,2012-11-16 10:50:00
4:51 AM,28.4,28.4,100,30.45,2.0,Calm,Calm,-,N/A,,Clear,0,2012-11-16 10:51:00
4:52 AM,28.4,28.4,100,30.44,3.0,Calm,Calm,-,N/A,,Clear,0,2012-11-16 10:52:00
4:55 AM,28.2,28.2,100,30.44,4.0,Calm,Calm,-,N/A,,Clear,0,2012-11-16 10:55:00
5:08 AM,26.6,-9999,N/A,30.44,2.5,Calm,Calm,-,N/A,,Clear,0,2012-11-16 11:08:00
5:10 AM,26.6,-9999,N/A,30.44,2.0,Calm,Calm,-,N/A,,Clear,0,2012-11-16 11:10:00
5:12 AM,26.6,-9999,N/A,30.44,1.8,Calm,Calm,-,N/A,,Clear,0,2012-11-16 11:12:00
5:13 AM,26.6,-9999,N/A,30.44,1.5,Calm,Calm,-,N/A,,Clear,0,2012-11-16 11:13:00
5:19 AM,26.6,-9999,N/A,30.45,1.8,Calm,Calm,-,N/A,,Clear,0,2012-11-16 11:19:00
5:21 AM,26.6,-9999,N/A,30.45,1.5,Calm,Calm,-,N/A,,Clear,0,2012-11-16 11:21:00
5:23 AM,26.6,-9999,N/A,30.45,1.8,Calm,Calm,-,N/A,,Clear,0,2012-11-16 11:23:00
5:25 AM,26.6,-9999,N/A,30.45,2.0,Calm,Calm,-,N/A,,Clear,0,2012-11-16 11:25:00
5:30 AM,26.6,-9999,N/A,30.45,2.5,Calm,Calm,-,N/A,,Clear,0,2012-11-16 11:30:00
5:31 AM,26.6,-9999,N/A,30.45,3.0,Calm,Calm,-,N/A,,Clear,0,2012-11-16 11:31:00
5:55 AM,27.3,-9999,N/A,30.45,7.0,Calm,Calm,-,N/A,,Clear,0,2012-11-16 11:55:00
6:00 AM,26.6,-9999,N/A,30.45,2.5,Calm,Calm,-,N/A,,Clear,0,2012-11-16 12:00:00
6:01 AM,26.6,-9999,N/A,30.45,1.5,Calm,Calm,-,N/A,,Clear,0,2012-11-16 12:01:00
6:02 AM,26.6,-9999,N/A,30.44,1.2,Calm,Calm,-,N/A,,Clear,0,2012-11-16 12:02:00
6:04 AM,26.6,-9999,N/A,30.45,0.8,Calm,Calm,-,N/A,,Clear,0,2012-11-16 12:04:00
6:10 AM,26.6,26.6,100,30.40,0.8,NE,2.3,-,N/A,,Clear,50,2012-11-16 12:10:00
6:12 AM,24.8,24.8,100,30.44,1.0,Calm,Calm,-,N/A,,Clear,0,2012-11-16 12:12:00
6:14 AM,24.8,24.8,100,30.44,1.5,NNE,3.5,-,N/A,,Clear,30,2012-11-16 12:14:00
6:15 AM,24.8,24.8,100,30.44,1.8,NNE,4.6,-,N/A,,Clear,30,2012-11-16 12:15:00
6:16 AM,24.8,24.8,100,30.44,2.0,NNE,4.6,-,N/A,,Clear,30,2012-11-16 12:16:00
6:17 AM,24.8,24.8,100,30.44,2.5,NNE,4.6,-,N/A,,Clear,20,2012-11-16 12:17:00
6:18 AM,24.8,24.8,100,30.44,3.0,NNE,4.6,-,N/A,,Clear,20,2012-11-16 12:18:00
6:55 AM,26.8,26.8,100,30.45,10.0,Calm,Calm,-,N/A,,Clear,0,2012-11-16 12:55:00
7:09 AM,26.6,26.6,100,30.45,2.5,Calm,Calm,-,N/A,,Clear,0,2012-11-16 13:09:00
7:10 AM,26.6,26.6,100,30.45,2.0,Calm,Calm,-,N/A,,Clear,0,2012-11-16 13:10:00
7:11 AM,26.6,26.6,100,30.46,1.8,Calm,Calm,-,N/A,,Clear,0,2012-11-16 13:11:00
7:12 AM,26.6,26.6,100,30.46,1.5,Calm,Calm,-,N/A,,Clear,0,2012-11-16 13:12:00
7:14 AM,26.6,26.6,100,30.46,1.2,Calm,Calm,-,N/A,,Clear,0,2012-11-16 13:14:00
7:16 AM,26.6,26.6,100,30.46,1.5,Calm,Calm,-,N/A,,Clear,0,2012-11-16 13:16:00
7:18 AM,26.6,26.6,100,30.46,1.8,Calm,Calm,-,N/A,,Clear,0,2012-11-16 13:18:00
7:19 AM,26.6,26.6,100,30.46,2.0,Calm,Calm,-,N/A,,Clear,0,2012-11-16 13:19:00
7:22 AM,26.6,26.6,100,30.47,2.5,Calm,Calm,-,N/A,,Clear,0,2012-11-16 13:22:00
7:23 AM,26.6,26.6,100,30.47,2.0,Calm,Calm,-,N/A,,Clear,0,2012-11-16 13:23:00
7:25 AM,26.6,26.6,100,30.47,1.8,Calm,Calm,-,N/A,,Clear,0,2012-11-16 13:25:00
7:27 AM,26.6,26.6,100,30.47,1.5,Calm,Calm,-,N/A,,Clear,0,2012-11-16 13:27:00
7:29 AM,26.6,26.6,100,30.47,1.2,Calm,Calm,-,N/A,,Clear,0,2012-11-16 13:29:00
7:40 AM,26.6,26.6,100,30.47,0.8,Calm,Calm,-,N/A,,Clear,0,2012-11-16 13:40:00
7:43 AM,26.6,-9999,N/A,30.47,1.0,Calm,Calm,-,N/A,,Clear,0,2012-11-16 13:43:00
7:49 AM,28.4,28.4,100,30.48,0.2,Calm,Calm,-,N/A,Fog,Light Freezing Fog,0,2012-11-16 13:49:00
7:50 AM,28.4,28.4,100,30.48,0.2,Calm,Calm,-,N/A,Fog,Light Freezing Fog,0,2012-11-16 13:50:00
7:55 AM,28.4,28.4,100,30.48,0.2,Calm,Calm,-,N/A,Fog,Light Freezing Fog,0,2012-11-16 13:55:00
8:00 AM,26.6,26.6,100,30.48,0.5,Calm,Calm,-,N/A,Fog,Light Freezing Fog,0,2012-11-16 14:00:00
8:01 AM,28.4,28.4,100,30.48,1.0,Calm,Calm,-,N/A,,Clear,0,2012-11-16 14:01:00
8:02 AM,28.4,28.4,100,30.48,2.5,Calm,Calm,-,N/A,,Clear,0,2012-11-16 14:02:00
8:03 AM,28.4,28.4,100,30.48,5.0,Calm,Calm,-,N/A,,Clear,0,2012-11-16 14:03:00
8:55 AM,32.7,32.7,100,30.49,10.0,Calm,Calm,-,N/A,,Clear,0,2012-11-16 14:55:00
9:55 AM,40.1,40.1,100,30.49,10.0,Calm,Calm,-,N/A,,Clear,0,2012-11-16 15:55:00
10:55 AM,48.0,44.1,86,30.46,10.0,Variable,3.5,-,N/A,,Clear,0,2012-11-16 16:55:00
11:55 AM,54.3,40.5,59,30.43,10.0,Calm,Calm,-,N/A,,Clear,0,2012-11-16 17:55:00
12:55 PM,59.4,36.5,43,30.40,10.0,Variable,5.8,-,N/A,,Clear,0,2012-11-16 18:55:00
1:55 PM,61.2,34.0,36,30.37,10.0,Variable,3.5,-,N/A,,Clear,0,2012-11-16 19:55:00
2:55 PM,61.2,34.3,37,30.35,10.0,South,8.1,-,N/A,,Clear,170,2012-11-16 20:55:00
3:55 PM,60.3,34.9,39,30.35,10.0,SSE,8.1,-,N/A,,Clear,160,2012-11-16 21:55:00
4:55 PM,56.5,35.2,45,30.35,10.0,SE,5.8,-,N/A,,Clear,140,2012-11-16 22:55:00
5:55 PM,52.5,36.0,53,30.35,10.0,SE,8.1,-,N/A,,Clear,130,2012-11-16 23:55:00
6:55 PM,51.6,35.8,55,30.35,10.0,SE,10.4,-,N/A,,Clear,140,2012-11-17 00:55:00
7:55 PM,50.5,35.8,57,30.35,10.0,SSE,12.7,-,N/A,,Clear,150,2012-11-17 01:55:00
8:55 PM,49.3,36.1,61,30.34,10.0,SE,12.7,-,N/A,,Clear,140,2012-11-17 02:55:00
9:55 PM,49.1,34.9,58,30.34,10.0,SSE,12.7,20.7,N/A,,Clear,160,2012-11-17 03:55:00
10:55 PM,46.6,35.2,65,30.34,10.0,SSE,11.5,-,N/A,,Clear,150,2012-11-17 04:55:00
11:55 PM,45.3,34.5,66,30.34,10.0,SSE,10.4,-,N/A,,Clear,160,2012-11-17 05:55:00